Hourly Data Report for September 28, 2006

TORONTO CITY
ONTARIO

43°40'00.000" N
79°24'00.000" W
112.50 m
6158355
71508
XTO

Download Data

Hourly Data (September 2006)
Hourly Data Report for September 28, 2006
TIME
LST
Temp Definition
°C
Dew Point Definition
°C
Rel Hum Definition
%
Precip. Amount Definition
mm

Wind Dir Definition
10's deg

Wind Spd Definition
km/h
Visibility Definition
km
Stn Press Definition
kPa
Hmdx Definition


Wind Chill Definition


Weather Definition


00:00 13.6 13.3 98   LegendMM LegendMM   99.20     LegendNANA
01:00 13.7 13.5 99   LegendMM LegendMM   99.20     LegendNANA
02:00 13.7 13.5 99   LegendMM LegendMM   99.18     LegendNANA
03:00 13.7 13.6 99   LegendMM LegendMM   99.15     LegendNANA
04:00 14.3 13.9 97   LegendMM LegendMM   99.19     LegendNANA
05:00 13.5 12.4 93   LegendMM LegendMM   99.19     LegendNANA
06:00 13.3 11.8 91   LegendMM LegendMM   99.24     LegendNANA
07:00 13.2 11.4 89   LegendMM LegendMM   99.31     LegendNANA
08:00 12.8 11.1 89   LegendMM LegendMM   99.33     LegendNANA
09:00 12.6 10.5 87   LegendMM LegendMM   99.39     LegendNANA
10:00 12.7 10.0 84   LegendMM LegendMM   99.35     LegendNANA
11:00 12.8 9.2 79   LegendMM LegendMM   99.40     LegendNANA
12:00 12.8 8.7 76   LegendMM LegendMM   99.41     LegendNANA
13:00 12.5 8.8 78   LegendMM LegendMM   99.39     LegendNANA
14:00 12.8 8.4 75   LegendMM LegendMM   99.39     LegendNANA
15:00 12.2 7.5 73   LegendMM LegendMM   99.38     LegendNANA
16:00 11.4 6.7 73   LegendMM LegendMM   99.39     LegendNANA
17:00 10.7 6.5 75   LegendMM LegendMM   99.45     LegendNANA
18:00 10.4 6.4 76   LegendMM LegendMM   99.52     LegendNANA
19:00 10.3 6.4 77   LegendMM LegendMM   99.54     LegendNANA
20:00 10.4 6.2 75   LegendMM LegendMM   99.58     LegendNANA
21:00 10.2 5.1 71   LegendMM LegendMM   99.61     LegendNANA
22:00 9.8 4.6 70   LegendMM LegendMM   99.68     LegendNANA
23:00 9.0 4.9 75   LegendMM LegendMM   99.69     LegendNANA

Notes on Data Quality.

Legend

  • E = Estimated
  • M = Missing
  • NA = Not Available*
  • [empty] = Indicates an unobserved value
Date modified: